Погода в Верхней Тишанке

Россия / Воронежская область     51°18′53″N   40°34′27″E
темп.,
°C
ветер,
м/с
пор.,
м/с
влажн.,
%
обл.,
%
осадки,
мм/ч
давл.,
гПа
погр.,
м
20 апреля, вт
вт2000:00+8в499110 0.1 1015305
03:00+7всв489498 0.1 1015323
06:00+8всв5992100 0.1 1015467
09:00+10в6985100 0.1 1013618
12:00+9в71087100 0.0 1012643
15:00+8в81491100 0.4 1009596
18:00+7всв91695100 16.5 1004817
21:00+11ююв11208048 25.9 998933
21 апреля, ср
ср2100:00+7ююз4994100 0.3 1002449
03:00+7з4796100 2.2 1003439
06:00+6зюз499193 0.6 1007522
09:00+8юз5987100 0.6 1010585
12:00+10юз687768 0.1 1012900
15:00+11юз477827 0.4 1013573
18:00+12зюз477364 1.1 1014410
21:00+8юз338292 1.3 101641
22 апреля, чт
чт2200:00+7юз35849 0.0 101782
03:00+6ююз35865 0.0 101888
06:00+7ю259297 1.1 1019144
09:00+12юз35695 1.1 1020760
12:00+15юз45525 0.4 10201696
15:00+16зюз354272 0.4 10202263
18:00+15юз2253100 0.0 102041
21:00+13з1163100 0.0 102212
23 апреля, пт
пт2300:00+12ю2262100 0.0 102227
03:00+11ююз2364100 0.0 102243
06:00+11ю3568100 0.0 102294
09:00+14ююз355898 0.0 1023363
12:00+17ююз3343100 0.0 10222196
15:00+17ю444533 0.0 10211599
18:00+15ююв465810 0.0 1020281
21:00+10ююв338061 2.4 102047
24 апреля, сб
сб2400:00+10ю34795 1.3 101962
03:00+9ююз35845 1.3 101873
06:00+8ю37846 0.0 1017134
09:00+14ююз5763100 0.0 1016562
12:00+15ююз6861100 0.3 1016989
15:00+16юз6850100 0.6 10141977
18:00+12з4876100 1.1 1015531
21:00+8сз488298 1.3 1017561